1500195600.51,3299,17.38,74266.3,12.57,-6.39,-4.69,0,*7A
1500195601.72,3300,17.38,74266.0,12.55,-6.69,-5.11,0,*72
1500195602.94,3301,17.38,74264.3,12.51,-6.31,-4.69,0,*74
1500195604.14,3302,17.38,74264.0,12.51,-6.01,-4.25,0,*7C
1500195605.38,3303,17.38,74264.3,12.45,-6.55,-4.77,0,*7E
1500195606.65,3304,17.31,74266.5,12.41,-7.77,-5.93,0,*77
1500195607.91,3305,17.38,74268.3,12.37,-7.01,-5.19,0,*74
1500195609.16,3306,17.38,74264.8,12.33,-6.27,-4.57,0,*7D
1500195610.37,3307,17.31,74262.3,12.33,-5.39,-3.91,0,*7D
1500195611.59,3308,17.38,74266.3,12.29,-4.65,-3.07,0,*7E
1500195612.8,3309,17.38,74266.3,12.29,-4.53,-3.07,0,*7A
1500195613.98,3310,17.38,74264.8,12.23,-4.53,-2.99,0,*7E
1500195615.19,3311,17.31,74264.3,12.21,-4.61,-3.15,0,*79
1500195616.41,3312,17.31,74262.0,12.19,-4.29,-2.71,0,*7E
1500195617.6,3313,17.38,74264.5,12.19,-4.05,-2.31,0,*75
1500195618.8,3314,17.38,74268.3,12.19,-3.79,-2.27,0,*79
1500195620.04,3315,17.31,74262.8,12.15,-3.51,-1.99,0,*78
1500195621.29,3316,17.38,74264.8,12.15,-3.55,-1.99,0,*7F
1500195622.52,3317,17.38,74264.8,12.15,-2.71,-1.13,0,*7B
1500195623.73,3318,17.31,74264.5,12.17,-2.43,-1.17,0,*73
1500195624.94,3319,17.38,74264.5,12.15,-2.39,-1.39,0,*71
1500195626.17,3320,17.38,74264.0,12.15,-2.47,-1.71,0,*7E
1500195627.43,3321,17.38,74264.8,12.13,-2.67,-1.91,0,*75
1500195628.64,3322,17.31,74262.8,12.13,-2.91,-2.15,0,*70
1500195629.9,3323,17.38,74264.8,12.13,-2.75,-2.03,0,*7C
1500195631.15,3324,17.38,74266.0,12.13,-3.15,-2.67,0,*7E
1500195632.38,3325,17.38,74266.3,12.13,-2.91,-2.63,0,*76
1500195633.62,3326,17.38,74264.0,12.11,-3.59,-3.59,0,*7A
1500195634.83,3327,17.38,74264.8,12.09,-4.45,-4.21,0,*70
1500195636.05,3328,17.38,74266.0,12.07,-3.19,-2.55,0,*7A
1500195637.28,3329,17.38,74266.3,12.07,-2.59,-1.91,0,*75
1500195638.46,3330,17.38,74266.5,12.07,-2.19,-1.25,0,*76
1500195639.7,3331,17.31,74262.8,12.05,-2.39,-1.39,0,*7A
1500195640.96,3332,17.38,74264.0,12.01,-1.99,-0.93,0,*45
1500195642.17,3333,17.38,74266.5,12.01,-1.75,-0.77,0,*4C
1500195643.38,3334,17.31,74262.0,12.01,-1.55,-0.49,0,*44
1500195644.63,3335,17.38,74264.0,12.01,-1.43,-0.37,0,*4B
1500195645.85,3336,17.38,74266.3,11.99,-0.93,0.17,0,*59
1500195647.07,3337,17.31,74262.5,12.01,-1.17,-0.15,0,*48
1500195648.28,3338,17.38,74262.3,11.97,-1.55,-0.53,0,*4F
1500195649.49,3339,17.38,74264.5,11.97,-2.35,-1.29,0,*77
1500195650.67,3340,17.38,74264.5,11.93,-3.35,-2.27,0,*71
1500195651.88,3341,17.38,74264.5,11.91,-3.19,-2.15,0,*7D
1500195653.09,3342,17.38,74264.5,11.89,-3.43,-2.35,0,*7A
1500195654.36,3343,17.38,74264.0,11.87,-3.59,-2.59,0,*74
1500195655.55,3344,17.38,74266.8,11.85,-2.87,-1.63,0,*79
1500195656.73,3345,17.38,74264.3,11.81,-2.15,-0.81,0,*4A
1500195657.94,3346,17.38,74264.8,11.81,-1.87,-0.53,0,*4E
1500195659.18,3347,17.38,74264.3,11.79,-2.87,-1.35,0,*7A
1500195660.39,3348,17.38,74264.0,11.79,-1.75,-0.07,0,*7B
1500195661.6,3349,17.38,74264.8,11.79,-2.35,-0.53,0,*4C
1500195662.84,3350,17.38,74264.5,11.79,-2.79,-0.89,0,*4B
1500195664.05,3351,17.38,74266.5,11.79,-2.79,-0.65,0,*48
1500195665.28,3352,17.38,74264.0,11.75,-2.59,-0.53,0,*40
1500195666.54,3353,17.38,74266.5,11.75,-2.55,-0.27,0,*4E
1500195667.77,3354,17.38,74266.8,11.75,-2.19,0.21,0,*6A
1500195669.0,3355,17.38,74264.3,11.75,-1.43,1.01,0,*54
1500195670.22,3356,17.38,74266.0,11.75,-1.55,0.95,0,*6C
1500195671.46,3357,17.38,74266.0,11.79,-1.35,1.05,0,*5F
1500195672.69,3358,17.38,74264.8,11.79,-2.23,0.21,0,*63
1500195673.92,3359,17.38,74264.5,11.75,-2.15,0.29,0,*63
1500195675.16,3360,17.38,74266.3,11.75,-1.33,1.17,0,*52
1500195676.39,3361,17.38,74262.5,11.79,-0.81,1.67,0,*60
1500195677.65,3362,17.38,74266.5,11.79,-1.13,1.29,0,*53
1500195678.88,3363,17.38,74264.5,11.79,-0.53,1.71,0,*6A
1500195680.08,3364,17.38,74266.0,11.81,-0.73,1.51,0,*6A
1500195681.29,3365,17.38,74268.0,11.81,-1.05,1.05,0,*5A
1500195682.52,3366,17.38,74268.3,11.81,-0.89,1.21,0,*6A
1500195683.71,3367,17.38,74266.0,11.81,-0.49,1.59,0,*68
1500195684.94,3368,17.38,74266.8,11.79,-0.15,1.93,0,*6F
1500195686.17,3369,17.38,74264.3,11.79,-0.03,2.05,0,*55
1500195687.38,3370,17.38,74266.3,11.85,0.41,2.39,0,*4A
1500195688.6,3371,17.38,74264.3,11.85,0.41,2.39,0,*4B
1500195689.82,3372,17.38,74266.8,11.87,-0.07,1.97,0,*52
1500195691.05,3373,17.38,74264.0,11.85,-1.09,0.87,0,*6E
1500195692.28,3374,17.38,74266.8,11.87,-0.57,1.63,0,*6A
1500195693.53,3375,17.38,74264.0,11.87,-0.23,1.85,0,*60
1500195694.76,3376,17.38,74268.3,11.87,-0.81,1.25,0,*61
1500195695.96,3377,17.38,74266.0,11.85,-0.57,1.55,0,*6E
1500195697.15,3378,17.38,74266.8,11.85,0.47,2.31,0,*4C
1500195698.37,3379,17.38,74266.5,11.89,0.79,2.59,0,*42
1500195699.63,3380,17.38,74266.3,11.87,1.25,3.03,0,*7C
1500195700.83,3381,17.38,74264.5,11.89,1.01,2.69,0,*78
1500195702.05,3382,17.38,74264.5,11.89,1.63,3.23,0,*70
1500195703.3,3383,17.38,74266.3,11.91,1.63,3.07,0,*7E
1500195704.5,3384,17.38,74268.3,11.93,1.55,2.99,0,*78
1500195705.73,3385,17.38,74266.3,11.95,1.83,3.15,0,*71
1500195706.98,3386,17.38,74266.8,11.95,1.93,3.37,0,*73
1500195708.21,3387,17.38,74264.3,11.97,1.41,2.69,0,*75
1500195709.41,3388,17.38,74264.8,11.99,1.67,2.99,0,*7F
1500195710.64,3389,17.38,74266.0,11.99,1.51,2.77,0,*7B
1500195711.86,3390,17.38,74270.0,11.99,1.43,2.59,0,*7C
1500195713.09,3391,17.38,74264.3,12.01,1.93,2.95,0,*72
1500195714.32,3392,17.38,74264.5,11.99,1.67,2.51,0,*70
1500195715.58,3393,17.38,74268.0,12.01,1.43,2.39,0,*7B
1500195716.84,3394,17.38,74266.5,12.01,2.17,2.89,0,*75
1500195718.07,3395,17.38,74266.3,12.05,2.31,3.15,0,*70
1500195719.33,3396,17.38,74266.8,12.05,2.39,3.11,0,*7F
1500195720.55,3397,17.38,74264.8,12.05,2.09,2.65,0,*7F
1500195721.73,3398,17.38,74266.0,12.07,2.31,2.91,0,*72
1500195722.95,3399,17.38,74268.0,12.09,2.21,2.65,0,*77
1500195724.18,3400,17.38,74268.0,12.09,2.65,3.15,0,*76
1500195725.41,3401,17.38,74270.3,12.07,2.25,2.73,0,*7C
1500195726.62,3402,17.38,74264.5,12.11,1.33,1.75,0,*79
1500195727.85,3403,17.38,74268.5,12.09,1.75,2.25,0,*75
1500195729.09,3404,17.38,74270.5,12.09,1.85,2.21,0,*79
1500195730.32,3405,17.38,74270.5,12.09,1.83,2.09,0,*74
1500195731.54,3406,17.38,74270.8,12.11,2.05,2.47,0,*79
1500195732.75,3407,17.38,74264.8,12.11,2.27,2.69,0,*74
1500195734.0,3408,17.38,74268.8,12.13,2.47,2.85,0,*7D
1500195735.25,3409,17.38,74270.8,12.13,2.47,2.85,0,*7C
1500195736.47,3410,17.38,74268.5,12.13,2.35,2.73,0,*78
1500195737.69,3411,17.38,74266.8,12.13,2.35,2.69,0,*72
1500195738.91,3412,17.38,74266.8,12.13,1.75,1.89,0,*7B
1500195740.14,3413,17.38,74266.5,12.13,1.51,1.75,0,*7F
1500195741.39,3414,17.38,74270.0,12.13,2.39,2.69,0,*7B
1500195742.64,3415,17.38,74266.3,12.13,2.59,2.77,0,*73
1500195743.9,3416,17.38,74264.5,12.13,2.17,2.39,0,*70
1500195745.16,3417,17.38,74270.0,12.13,2.47,2.73,0,*7A
1500195746.39,3418,17.38,74264.8,12.15,2.55,2.81,0,*7D
1500195747.64,3419,17.38,74268.0,12.17,2.43,2.59,0,*7C
1500195748.87,3420,17.38,74264.0,12.15,2.21,2.43,0,*7B
1500195750.1,3421,17.38,74264.3,12.15,1.85,2.05,0,*75
1500195751.36,3422,17.38,74268.3,12.17,1.85,2.13,0,*73
1500195752.61,3423,17.38,74264.5,12.17,1.85,2.09,0,*79
1500195753.87,3424,17.38,74266.5,12.17,1.71,2.09,0,*75
1500195755.09,3425,17.38,74268.3,12.17,2.09,2.31,0,*73
1500195756.32,3426,17.38,74266.3,12.19,1.33,1.55,0,*75
1500195757.55,3427,17.38,74270.0,12.15,1.33,1.67,0,*79
1500195758.8,3428,17.38,74268.0,12.17,1.51,1.89,0,*70
1500195760.02,3429,17.38,74268.3,12.15,1.59,1.97,0,*74
1500195761.22,3430,17.38,74270.5,12.15,0.97,1.37,0,*45
1500195762.45,3431,17.38,74264.5,12.15,1.33,1.67,0,*7E
1500195763.68,3432,17.38,74268.3,12.15,1.09,1.43,0,*72
1500195764.92,3433,17.38,74268.0,12.13,0.67,1.13,0,*49
1500195766.13,3434,17.38,74270.3,12.11,0.67,1.21,0,*4D
1500195767.32,3435,17.38,74268.3,12.11,-0.07,0.33,0,*65
1500195768.51,3436,17.38,74264.5,12.11,0.09,0.59,0,*49
1500195769.73,3437,17.38,74268.5,12.07,-0.23,0.17,0,*50
1500195770.92,3438,17.38,74268.5,12.07,-0.07,0.51,0,*6B
1500195772.13,3439,17.38,74270.8,12.05,0.01,0.59,0,*4B
1500195773.37,3440,17.38,74268.3,12.01,0.21,0.83,0,*74
1500195774.62,3441,17.38,74268.3,12.01,0.83,1.51,0,*43
1500195775.86,3442,17.38,74266.0,12.01,1.09,1.79,0,*79
1500195777.11,3443,17.38,74268.5,12.01,0.91,1.51,0,*42
1500195778.3,3444,17.38,74266.8,12.01,0.43,1.01,0,*4F
1500195779.53,3445,17.38,74270.5,11.97,0.67,1.51,0,*41
1500195780.75,3446,17.38,74264.5,11.99,0.83,1.43,0,*45
1500195781.98,3447,17.38,74270.0,11.99,1.09,1.67,0,*71
1500195783.14,3448,17.38,74264.5,11.99,0.43,1.05,0,*45
1500195784.39,3449,17.38,74268.8,11.97,0.17,0.91,0,*77
1500195785.59,3450,17.38,74266.5,11.99,0.33,0.95,0,*73
1500195786.84,3451,17.38,74266.3,11.97,0.55,1.25,0,*46
1500195788.08,3452,17.38,74268.3,11.97,0.91,1.63,0,*4F
1500195789.33,3453,17.38,74268.5,11.95,0.83,1.55,0,*4A
1500195790.57,3454,17.38,74268.0,11.95,1.13,1.75,0,*77
1500195791.82,3455,17.38,74266.8,11.95,1.25,1.93,0,*7B
1500195793.03,3456,17.38,74270.3,11.93,1.13,1.83,0,*7A
1500195794.22,3457,17.38,74270.0,11.93,1.01,1.67,0,*72
1500195795.43,3458,17.38,74268.8,11.93,0.95,1.47,0,*43
1500195796.62,3459,17.38,74270.5,11.93,0.41,0.97,0,*77
1500195797.81,3460,17.38,74268.0,11.93,-0.03,0.51,0,*6C
1500195799.0,3461,17.38,74268.3,11.93,-0.15,0.37,0,*5A
1500195800.16,3462,17.38,74268.8,11.89,0.43,1.01,0,*48
1500195801.32,3463,17.38,74272.8,11.89,-0.33,0.01,0,*62
1500195802.52,3464,17.38,74268.0,11.87,-0.53,-0.07,0,*46
1500195803.69,3465,17.38,74268.5,11.85,-0.37,0.01,0,*6C
1500195804.91,3466,17.38,74270.5,11.85,0.25,0.75,0,*72
1500195806.1,3467,17.38,74266.5,11.85,0.09,0.47,0,*4C
1500195807.29,3468,17.38,74264.5,11.81,0.55,0.97,0,*73
1500195808.48,3469,17.38,74266.8,11.81,0.09,0.47,0,*46
1500195809.72,3470,17.38,74266.3,11.79,0.47,0.95,0,*7C
1500195810.96,3471,17.38,74270.3,11.75,0.41,0.79,0,*75
1500195812.17,3472,17.38,74268.3,11.75,0.67,1.01,0,*4C
1500195813.39,3473,17.38,74268.0,11.73,0.51,0.91,0,*76
1500195814.64,3474,17.38,74270.5,11.75,0.21,0.51,0,*7C
1500195815.83,3475,17.38,74266.8,11.73,0.05,0.29,0,*42
1500195817.08,3476,17.38,74268.5,11.71,0.55,0.83,0,*76
1500195818.31,3477,17.38,74268.8,11.71,0.97,1.33,0,*43
1500195819.53,3478,17.38,74268.0,11.69,0.21,0.47,0,*7A
1500195820.75,3479,17.38,74268.3,11.69,0.37,0.47,0,*7C
1500195821.96,3480,17.38,74270.8,11.69,0.59,0.83,0,*7A
1500195823.18,3481,17.38,74268.3,11.65,0.51,0.63,0,*71
1500195824.39,3482,17.38,74268.3,11.67,-0.03,0.17,0,*69
1500195825.61,3483,17.38,74268.3,11.65,0.75,0.91,0,*78
1500195826.84,3484,17.38,74270.5,11.65,0.79,1.09,0,*43
1500195828.05,3485,17.38,74268.3,11.65,0.51,0.67,0,*71
1500195829.24,3486,17.38,74268.8,11.61,-0.03,0.01,0,*5C
1500195830.45,3487,17.38,74272.5,11.61,-0.53,-0.49,0,*79
1500195831.66,3488,17.38,74268.0,11.59,-0.27,-0.11,0,*73
1500195832.85,3489,17.38,74264.8,11.57,-0.07,-0.03,0,*7D
1500195834.09,3490,17.38,74270.0,11.53,0.29,0.47,0,*7D
1500195835.31,3491,17.38,74270.0,11.51,0.55,0.67,0,*77
1500195836.53,3492,17.38,74268.3,11.51,0.47,0.51,0,*72
1500195837.77,3493,17.38,74270.0,11.49,0.59,0.71,0,*77
1500195838.98,3494,17.38,74270.5,11.47,0.67,0.79,0,*7B
1500195840.18,3495,17.38,74270.0,11.49,-0.11,-0.03,0,*48
1500195841.38,3496,17.38,74268.5,11.47,-0.29,-0.27,0,*78
1500195842.56,3497,17.38,74268.5,11.43,-0.57,-0.57,0,*73
1500195843.75,3498,17.38,74270.0,11.43,0.01,0.17,0,*4B
1500195844.98,3499,17.38,74270.8,11.41,0.41,0.41,0,*7F
1500195846.21,3500,17.38,74270.5,11.39,0.51,0.63,0,*70
1500195847.45,3501,17.38,74270.0,11.41,0.47,0.51,0,*78
1500195848.68,3502,17.38,74268.0,11.39,0.47,0.47,0,*73
1500195849.9,3503,17.38,74268.3,11.39,0.59,0.59,0,*72
1500195851.12,3504,17.38,74268.8,11.37,0.47,0.43,0,*7F
1500195852.34,3505,17.38,74268.8,11.35,0.21,0.29,0,*70
1500195853.57,3506,17.38,74268.8,11.35,0.55,0.55,0,*7B
1500195854.82,3507,17.38,74268.0,11.31,0.55,0.55,0,*7E
1500195856.06,3508,17.38,74270.0,11.31,0.33,0.41,0,*74
1500195857.29,3509,17.38,74270.3,11.29,0.51,0.47,0,*7E
1500195858.5,3510,17.38,74270.8,11.29,-0.11,-0.23,0,*70
1500195859.74,3511,17.38,74272.0,11.27,0.25,0.25,0,*7E
1500195860.95,3512,17.38,74272.3,11.25,0.21,0.37,0,*78
1500195862.17,3513,17.38,74266.8,11.25,0.47,0.55,0,*7D
1500195863.4,3514,17.38,74272.5,11.25,-0.89,-1.13,0,*4B
1500195864.59,3515,17.38,74266.0,11.21,-0.19,-0.19,0,*7C
1500195865.81,3516,17.38,74270.0,11.21,0.33,0.33,0,*7F
1500195867.03,3517,17.38,74268.5,11.17,0.83,0.71,0,*76
1500195868.23,3518,17.38,74270.0,11.17,0.97,0.95,0,*76
1500195869.48,3519,17.38,74270.5,11.19,0.59,0.51,0,*73
1500195870.65,3520,17.38,74270.3,11.17,0.09,0.05,0,*73
1500195871.87,3521,17.38,74272.5,11.17,0.33,0.21,0,*7D
1500195873.09,3522,17.38,74270.0,11.17,0.59,0.55,0,*71
1500195874.32,3523,17.38,74268.5,11.15,0.33,0.33,0,*7E
1500195875.56,3524,17.38,74270.8,11.13,0.91,0.83,0,*7C
1500195876.77,3525,17.38,74272.3,11.13,0.41,0.41,0,*7E
1500195877.94,3526,17.38,74270.3,11.13,0.09,0.05,0,*71
1500195879.18,3527,17.38,74270.3,11.11,0.63,0.67,0,*7A
1500195880.42,3528,17.38,74272.3,11.07,0.37,0.41,0,*77
1500195881.67,3529,17.38,74270.8,11.07,0.47,0.51,0,*70
1500195882.86,3530,17.38,74268.3,11.11,0.43,0.43,0,*78
1500195884.08,3531,17.38,74270.0,11.07,-0.33,-0.49,0,*73
1500195885.29,3532,17.38,74270.0,11.03,-1.51,-1.63,0,*78
1500195886.55,3533,17.38,74270.8,11.03,-0.85,-0.93,0,*7F
1500195887.76,3534,17.38,74270.3,10.99,-0.29,-0.23,0,*77
1500195888.96,3535,17.38,74268.5,10.99,-0.19,-0.19,0,*7C
1500195890.12,3536,17.38,74268.3,10.97,-0.07,0.01,0,*5A
1500195891.35,3537,17.38,74270.5,10.95,0.25,0.25,0,*72
1500195892.56,3538,17.38,74268.8,10.95,0.37,0.43,0,*7E
1500195893.77,3539,17.38,74268.0,10.93,0.47,0.55,0,*79
1500195894.98,3540,17.38,74266.0,10.93,0.21,0.17,0,*71
1500195896.22,3541,17.38,74268.8,10.91,0.21,0.21,0,*77
1500195897.4,3542,17.38,74268.8,10.95,0.09,0.09,0,*70
1500195898.62,3543,17.38,74268.3,10.91,-0.23,-0.29,0,*7F
1500195899.81,3544,17.38,74270.0,10.91,-0.29,-0.29,0,*72
1500195901.01,3545,17.38,74268.3,10.89,-0.37,-0.27,0,*7B
1500195902.18,3546,17.38,74270.5,10.85,-0.03,-0.03,0,*75
1500195903.33,3547,17.38,74268.5,10.85,0.01,-0.03,0,*5B
1500195904.5,3548,17.38,74272.8,10.85,-0.03,-0.11,0,*48
1500195905.73,3549,17.38,74270.3,10.83,0.13,0.21,0,*7D
1500195906.98,3550,17.38,74272.3,10.83,-0.23,-0.27,0,*70
1500195908.16,3551,17.38,74274.5,10.81,0.09,0.17,0,*48
1500195909.36,3552,17.38,74274.0,10.81,0.29,0.33,0,*7F
1500195910.56,3553,17.38,74274.3,10.79,0.43,0.41,0,*70
1500195911.8,3554,17.38,74274.0,10.79,0.79,0.79,0,*75
1500195913.0,3555,17.38,74274.3,10.77,0.37,0.37,0,*7A
1500195914.23,3556,17.38,74270.3,10.79,0.41,0.33,0,*72
1500195915.42,3557,17.38,74270.3,10.77,-0.23,-0.37,0,*7D
1500195916.6,3558,17.38,74272.3,10.77,-0.73,-0.81,0,*7A
1500195917.82,3559,17.38,74268.8,10.73,-0.97,-1.13,0,*4F
1500195919.02,3560,17.38,74272.3,10.73,-0.15,-0.23,0,*7D
1500195920.24,3561,17.38,74272.5,10.69,-0.27,-0.27,0,*72
1500195921.41,3562,17.38,74270.8,10.69,-0.29,-0.29,0,*71
1500195922.65,3563,17.38,74270.8,10.69,-1.05,-1.13,0,*77
1500195923.82,3564,17.38,74272.5,10.63,-0.45,-0.45,0,*7D
1500195925.0,3565,17.38,74270.8,10.63,-0.15,-0.03,0,*4B
1500195926.2,3566,17.38,74268.0,10.63,-0.27,-0.33,0,*7A
1500195927.4,3567,17.38,74272.5,10.61,-0.49,-0.49,0,*7C
1500195928.58,3568,17.38,74270.3,10.59,-0.77,-0.77,0,*78
1500195929.83,3569,17.38,74272.5,10.57,-0.85,-0.93,0,*70
1500195931.04,3570,17.38,74274.0,10.55,-1.33,-1.47,0,*7E
1500195932.28,3571,17.38,74272.0,10.53,-1.75,-1.87,0,*77
1500195933.49,3572,17.38,74272.0,10.51,-1.13,-1.17,0,*7F
1500195934.68,3573,17.38,74274.3,10.51,-1.67,-1.67,0,*7A
1500195935.87,3574,17.38,74268.8,10.47,-1.55,-1.55,0,*7A
1500195937.07,3575,17.38,74270.0,10.45,-0.73,-0.69,0,*72
1500195938.27,3576,17.38,74272.8,10.45,-0.33,-0.29,0,*71
1500195939.45,3577,17.38,74272.8,10.45,0.05,0.05,0,*7B
1500195940.64,3578,17.38,74274.8,10.45,-0.07,0.01,0,*5F
1500195941.87,3579,17.38,74270.8,10.45,0.17,0.21,0,*70
1500195943.11,3580,17.38,74272.8,10.41,0.17,0.13,0,*73
1500195944.31,3581,17.38,74272.5,10.41,0.05,0.13,0,*41
1500195945.54,3582,17.38,74272.0,10.41,-0.23,-0.15,0,*70
1500195946.76,3583,17.38,74270.5,10.41,-0.33,-0.23,0,*75
1500195948.01,3584,17.38,74270.0,10.41,-0.27,-0.27,0,*73
1500195949.27,3585,17.38,74270.5,10.41,-1.09,-1.09,0,*72
1500195950.53,3586,17.38,74274.5,10.37,-1.13,-1.01,0,*73
1500195951.8,3587,17.38,74270.0,10.37,-1.05,-1.05,0,*71
1500195953.0,3588,17.38,74270.8,10.35,-0.69,-0.69,0,*7C
1500195954.18,3589,17.38,74274.0,10.33,-0.53,-0.53,0,*7B
1500195955.38,3590,17.38,74270.8,10.33,-0.85,-0.81,0,*77
1500195956.58,3591,17.38,74270.3,10.31,-0.49,-0.45,0,*7C
1500195957.8,3592,17.38,74272.8,10.29,-1.29,-1.35,0,*77
1500195959.03,3593,17.38,74272.5,10.29,-1.35,-1.35,0,*7B
1500195960.24,3594,17.38,74272.0,10.27,-0.69,-0.69,0,*72
1500195961.51,3595,17.38,74272.5,10.27,-1.39,-1.39,0,*73
1500195962.72,3596,17.38,74268.3,10.25,-1.79,-1.91,0,*74
1500195963.97,3597,17.38,74270.8,10.23,-1.87,-1.95,0,*76
1500195965.16,3598,17.38,74268.5,10.17,-1.75,-1.75,0,*7D
1500195966.42,3599,17.38,74268.5,10.15,-1.05,-0.93,0,*40
1500195967.63,3600,17.38,74270.8,10.15,-0.53,-0.41,0,*7E
1500195968.84,3601,17.38,74270.8,10.15,-0.77,-0.57,0,*7E
1500195970.02,3602,17.38,74272.3,10.13,-0.45,-0.33,0,*78
1500195971.25,3603,17.38,74272.0,10.11,-0.89,-0.81,0,*72
1500195972.48,3604,17.38,74268.8,10.11,-0.85,-0.81,0,*79
1500195973.74,3605,17.38,74270.5,10.11,-0.97,-0.97,0,*7C
1500195974.92,3606,17.38,74272.5,10.09,-0.69,-0.57,0,*7B
1500195976.09,3607,17.38,74268.0,10.09,-0.19,0.01,0,*63
1500195977.3,3608,17.38,74274.3,10.07,-0.33,-0.15,0,*72
1500195978.5,3609,17.38,74270.3,10.07,-0.15,-0.03,0,*40
1500195979.73,3610,17.38,74270.8,10.07,-0.15,0.13,0,*54
1500195980.95,3611,17.38,74270.8,10.07,-0.15,0.13,0,*55
1500195982.16,3612,17.38,74268.0,10.07,-0.61,-0.41,0,*7F
1500195983.37,3613,17.38,74272.3,10.07,-0.41,-0.33,0,*79
1500195984.58,3614,17.38,74268.5,10.07,-0.77,-0.65,0,*78
1500195985.82,3615,17.38,74268.5,10.05,-1.01,-1.01,0,*78
1500195987.06,3616,17.38,74270.5,10.03,-1.43,-1.39,0,*70
1500195988.27,3617,17.38,74270.8,10.01,-1.55,-1.55,0,*7E
1500195989.44,3618,17.38,74272.5,9.99,-1.63,-1.59,0,*41
1500195990.63,3619,17.38,74268.3,9.95,-1.25,-1.21,0,*41
1500195991.84,3620,17.38,74268.5,9.93,-1.67,-1.63,0,*4D
1500195993.04,3621,17.38,74270.0,9.91,-0.97,-0.61,0,*43
1500195994.24,3622,17.38,74268.5,9.89,-0.33,-0.19,0,*48
1500195995.44,3623,17.38,74268.0,9.89,-0.19,-0.07,0,*7E
1500195996.61,3624,17.38,74268.5,9.91,-0.57,-0.45,0,*4C
1500195997.83,3625,17.38,74272.3,9.89,-0.41,-0.41,0,*47
1500195999.03,3626,17.38,74270.3,9.89,-0.57,-0.53,0,*40
1500196000.28,3627,17.38,74270.3,9.89,-0.97,-1.05,0,*7F
1500196001.47,3628,17.38,74268.5,9.85,-0.61,-0.65,0,*42
1500196002.64,3629,17.38,74270.0,9.87,-0.11,0.01,0,*59
1500196003.86,3630,17.38,74270.5,9.85,-0.29,-0.27,0,*41
1500196005.06,3631,17.38,74270.8,9.85,-0.37,-0.37,0,*4E
1500196006.27,3632,17.38,74270.3,9.85,-0.41,-0.41,0,*4D
1500196007.46,3633,17.38,74268.0,9.81,-0.69,-0.65,0,*44
1500196008.66,3634,17.38,74268.3,9.81,-0.45,-0.53,0,*48
1500196009.86,3635,17.38,74270.3,9.81,-0.41,-0.29,0,*40
1500196011.1,3636,17.38,74268.0,9.81,-0.23,-0.23,0,*4D
1500196012.32,3637,17.38,74270.8,9.79,-0.23,-0.23,0,*4B
1500196013.5,3638,17.38,74268.5,9.79,-0.11,-0.19,0,*4C
1500196014.69,3639,17.38,74270.5,9.77,0.01,-0.15,0,*53
1500196015.85,3640,17.38,74268.0,9.79,0.01,-0.11,0,*57
1500196017.05,3641,17.38,74270.3,9.77,0.13,0.09,0,*7F
1500196018.3,3642,17.38,74272.3,9.77,-0.23,-0.27,0,*43
1500196019.49,3643,17.38,74268.8,9.77,-0.03,-0.15,0,*71
1500196020.7,3644,17.38,74268.3,9.73,-0.19,-0.37,0,*49
1500196021.86,3645,17.38,74270.8,9.71,-0.49,-0.65,0,*48
1500196023.03,3646,17.38,74268.0,9.71,-0.65,-0.77,0,*46
1500196024.21,3647,17.38,74270.8,9.71,-0.19,-0.37,0,*48
1500196025.39,3648,17.38,74266.8,9.67,-0.11,-0.29,0,*47
1500196026.55,3649,17.38,74268.5,9.67,-0.29,-0.57,0,*44
1500196027.78,3650,17.38,74268.3,9.65,-0.27,-0.45,0,*43
1500196029.01,3651,17.38,74268.5,9.65,-0.27,-0.37,0,*47
1500196030.23,3652,17.38,74270.3,9.65,-0.23,-0.37,0,*40
1500196031.4,3653,17.38,74270.0,9.63,-0.49,-0.65,0,*4C
1500196032.57,3654,17.38,74268.3,9.63,-0.61,-0.77,0,*42
1500196033.76,3655,17.38,74264.8,9.63,-0.73,-0.89,0,*41
1500196034.94,3656,17.38,74268.8,9.59,-0.65,-0.77,0,*4D
1500196036.13,3657,17.38,74266.8,9.59,-0.65,-0.89,0,*4D
1500196037.3,3658,17.38,74270.5,9.55,-0.45,-0.57,0,*4F
1500196038.5,3659,17.38,74270.0,9.55,-0.23,-0.37,0,*48
1500196039.67,3660,17.38,74268.0,9.55,-0.45,-0.61,0,*41
1500196040.86,3661,17.38,74268.5,9.53,-0.49,-0.61,0,*4A
1500196042.05,3662,17.38,74266.0,9.49,-0.29,-0.53,0,*45
1500196043.28,3663,17.38,74270.8,9.49,-0.23,-0.41,0,*4D
1500196044.45,3664,17.38,74268.0,9.47,-0.15,-0.33,0,*44
1500196045.65,3665,17.38,74270.8,9.45,0.05,-0.19,0,*53
1500196046.87,3666,17.31,74264.0,9.45,-0.23,-0.45,0,*40
1500196048.07,3667,17.38,74268.0,9.45,-0.37,-0.69,0,*4A
1500196049.25,3668,17.38,74270.3,9.43,-0.37,-0.61,0,*4B
1500196050.44,3669,17.38,74270.0,9.41,-0.49,-0.65,0,*45
1500196051.67,3670,17.38,74268.3,9.41,-0.11,-0.23,0,*42
1500196052.89,3671,17.38,74270.8,9.41,-0.03,-0.23,0,*70
1500196054.09,3672,17.38,74272.5,9.37,-0.27,-0.41,0,*40
1500196055.25,3673,17.38,74268.8,9.37,-0.33,-0.57,0,*43
1500196056.47,3674,17.38,74268.0,9.35,-0.23,-0.45,0,*44
1500196057.64,3675,17.38,74270.8,9.33,-0.49,-0.69,0,*41
1500196058.82,3676,17.38,74268.0,9.33,-0.19,-0.33,0,*48
1500196060.02,3677,17.38,74270.8,9.27,-0.37,-0.53,0,*46
1500196061.25,3678,17.38,74266.5,9.31,-0.27,-0.41,0,*4C
1500196062.45,3679,17.38,74266.5,9.27,-0.45,-0.77,0,*4B
1500196063.65,3680,17.38,74270.5,9.27,-0.29,-0.41,0,*42
1500196064.85,3681,17.38,74268.0,9.25,-0.15,-0.27,0,*4E
1500196066.04,3682,17.38,74268.8,9.25,-0.07,-0.27,0,*7E
1500196067.24,3683,17.38,74268.8,9.23,-0.29,-0.41,0,*45
1500196068.49,3684,17.38,74268.5,9.19,-0.97,-1.09,0,*73
1500196069.73,3685,17.38,74268.5,9.19,-1.25,-1.35,0,*45
1500196070.93,3686,17.38,74270.5,9.15,-2.15,-2.19,0,*47
1500196072.17,3687,17.38,74270.8,9.13,-2.55,-2.67,0,*4D
1500196073.41,3688,17.38,74268.5,9.11,-2.11,-2.35,0,*47
1500196074.63,3689,17.38,74270.8,9.09,-1.47,-1.51,0,*4E
1500196075.88,3690,17.38,74270.3,9.05,-2.03,-1.99,0,*4D
1500196077.12,3691,17.38,74270.0,9.01,-1.71,-1.83,0,*45
1500196078.33,3692,17.38,74270.8,9.01,-1.21,-1.29,0,*43
1500196079.58,3693,17.38,74270.3,8.97,-0.97,-1.09,0,*72
1500196080.78,3694,17.38,74266.8,8.97,-0.69,-0.77,0,*4C
1500196082.04,3695,17.38,74270.5,8.97,-1.43,-1.47,0,*46
1500196083.24,3696,17.38,74270.3,8.95,-1.47,-1.59,0,*4C
1500196084.48,3697,17.38,74266.5,8.93,-2.07,-2.27,0,*46
1500196085.68,3698,17.38,74268.5,8.89,-1.59,-1.71,0,*4A
1500196086.91,3699,17.38,74272.0,8.89,-1.01,-1.21,0,*43
1500196088.08,3700,17.38,74268.5,8.87,-0.45,-0.45,0,*4E
1500196089.28,3701,17.38,74268.3,8.87,-0.81,-0.89,0,*47
1500196090.49,3702,17.38,74266.3,8.85,-1.17,-1.25,0,*4F
1500196091.74,3703,17.38,74266.3,8.85,-0.89,-1.01,0,*7E
1500196092.96,3704,17.38,74268.8,8.85,-0.77,-0.85,0,*45
1500196094.2,3705,17.38,74270.0,8.81,-1.05,-1.17,0,*4E
1500196095.42,3706,17.31,74266.3,8.79,-0.89,-0.93,0,*42
1500196096.64,3707,17.38,74268.8,8.79,-0.93,-0.97,0,*4C
1500196097.87,3708,17.38,74268.3,8.79,-0.89,-1.05,0,*72
1500196099.14,3709,17.38,74268.0,8.77,-1.43,-1.35,0,*49
1500196100.4,3710,17.38,74270.5,8.75,-1.35,-1.43,0,*43
1500196101.6,3711,17.38,74266.5,8.75,-1.59,-1.71,0,*49
1500196102.83,3712,17.38,74266.5,8.71,-1.75,-1.87,0,*49
1500196104.1,3713,17.38,74270.0,8.67,-1.43,-1.43,0,*42
1500196105.36,3714,17.31,74264.3,8.67,-2.07,-2.11,0,*42
1500196106.6,3715,17.38,74268.0,8.65,-2.03,-2.03,0,*46
1500196107.84,3716,17.38,74268.8,8.63,-2.39,-2.51,0,*4D
1500196109.07,3717,17.38,74268.8,8.63,-2.39,-2.51,0,*4C
1500196110.26,3718,17.38,74270.3,8.57,-2.19,-2.23,0,*43
1500196111.5,3719,17.38,74268.8,8.53,-1.83,-1.87,0,*4B
1500196112.71,3720,17.38,74270.0,8.53,-1.35,-1.51,0,*47
1500196113.95,3721,17.38,74270.0,8.49,-1.87,-1.99,0,*40
1500196115.16,3722,17.31,74264.5,8.51,-2.23,-2.39,0,*4E
1500196116.37,3723,17.38,74268.8,8.49,-2.11,-2.27,0,*48
1500196117.59,3724,17.38,74268.5,8.45,-1.47,-1.67,0,*44
1500196118.82,3725,17.38,74270.3,8.45,-1.83,-1.95,0,*40
1500196120.03,3726,17.38,74268.8,8.41,-1.67,-1.75,0,*43
1500196121.2,3727,17.38,74268.8,8.39,-1.67,-1.79,0,*41